< < Back
Terminal Aerodrome Forecast


Current Version              Previous Versions:   1  2  3  4  5  6  7  8  9  

Terminal Aerodrome Forecast

149
FTUS44 KOHX 061120
TAFBNA
TAF
KBNA 061120Z 0612/0712 00000KT 6SM BR FEW050
      TEMPO 0612/0613 3SM BR BKN003
     FM061400 23006KT P6SM SCT050 SCT150
     FM070100 20004KT P6SM BKN150=

Latest METAR

672
SAUS70 KWBC 062000
MTRBNA
METAR KBNA 061953Z 23005KT 10SM BKN047 BKN070 29/21 A3010 RMK AO2 SLP185
T02890211


USA.gov is the U.S. government's official web portal to all federal, state and local government web resources and services.